TimeEST,TemperatureF,Dew PointF,Humidity,Sea Level PressureIn,VisibilityMPH,Wind Direction,Wind SpeedMPH,Gust SpeedMPH,PrecipitationIn,Events,Conditions,WindDirDegrees,DateUTC
12:15 AM,28.4,19.4,69,30.20,10.0,SSW,5.8,-,N/A,,Overcast,200,2012-11-28 05:15:00
12:55 AM,28.4,19.4,69,30.18,10.0,SSW,6.9,-,N/A,,Overcast,200,2012-11-28 05:55:00
1:15 AM,28.4,19.4,69,30.18,10.0,SW,3.5,-,N/A,,Overcast,220,2012-11-28 06:15:00
1:55 AM,28.4,19.4,69,30.19,10.0,WSW,8.1,-,N/A,,Overcast,240,2012-11-28 06:55:00
2:15 AM,28.4,17.6,64,30.19,10.0,SW,6.9,-,N/A,,Overcast,220,2012-11-28 07:15:00
2:35 AM,28.4,17.6,64,30.19,10.0,SSW,8.1,-,N/A,,Overcast,210,2012-11-28 07:35:00
2:55 AM,28.4,17.6,64,30.19,10.0,SW,10.4,-,N/A,,Overcast,220,2012-11-28 07:55:00
3:15 AM,26.6,17.6,69,30.18,10.0,SW,8.1,-,N/A,,Mostly Cloudy,230,2012-11-28 08:15:00
3:35 AM,26.6,17.6,69,30.18,10.0,SW,8.1,-,N/A,,Overcast,230,2012-11-28 08:35:00
3:55 AM,26.6,17.6,69,30.17,10.0,SW,8.1,-,N/A,,Overcast,220,2012-11-28 08:55:00
4:15 AM,26.6,17.6,69,30.17,10.0,SW,6.9,-,N/A,,Overcast,220,2012-11-28 09:15:00
4:35 AM,26.6,17.6,69,30.17,10.0,SW,8.1,-,N/A,,Overcast,220,2012-11-28 09:35:00
4:55 AM,26.6,17.6,69,30.17,10.0,SW,8.1,-,N/A,,Overcast,230,2012-11-28 09:55:00
5:15 AM,26.6,17.6,69,30.17,10.0,SW,5.8,-,N/A,,Overcast,220,2012-11-28 10:15:00
5:35 AM,26.6,17.6,69,30.17,10.0,SSW,5.8,-,N/A,,Overcast,200,2012-11-28 10:35:00
5:55 AM,26.6,17.6,69,30.16,10.0,SSW,5.8,-,N/A,,Overcast,200,2012-11-28 10:55:00
6:15 AM,26.6,17.6,69,30.16,10.0,SSW,10.4,-,N/A,,Overcast,200,2012-11-28 11:15:00
6:35 AM,26.6,17.6,69,30.16,10.0,SSW,8.1,-,N/A,,Overcast,210,2012-11-28 11:35:00
6:55 AM,26.6,17.6,69,30.16,10.0,SW,6.9,-,N/A,,Overcast,220,2012-11-28 11:55:00
7:15 AM,26.6,17.6,69,30.16,10.0,SW,6.9,-,N/A,,Overcast,220,2012-11-28 12:15:00
7:35 AM,26.6,17.6,69,30.16,10.0,SW,10.4,16.1,N/A,,Overcast,220,2012-11-28 12:35:00
7:55 AM,26.6,17.6,69,30.17,10.0,SSW,9.2,-,N/A,,Overcast,210,2012-11-28 12:55:00
8:15 AM,26.6,17.6,69,30.17,10.0,SSW,6.9,-,N/A,,Overcast,210,2012-11-28 13:15:00
8:35 AM,26.6,17.6,69,30.17,10.0,SW,8.1,-,N/A,,Overcast,220,2012-11-28 13:35:00
8:55 AM,26.6,17.6,69,30.17,10.0,SW,12.7,18.4,N/A,,Overcast,220,2012-11-28 13:55:00
9:15 AM,26.6,17.6,69,30.17,10.0,SW,11.5,18.4,N/A,,Overcast,220,2012-11-28 14:15:00
9:35 AM,28.4,17.6,64,30.17,10.0,SW,10.4,-,N/A,,Overcast,220,2012-11-28 14:35:00
9:55 AM,28.4,19.4,69,30.17,10.0,SW,12.7,18.4,N/A,,Overcast,220,2012-11-28 14:55:00
10:15 AM,28.4,19.4,69,30.18,10.0,SW,11.5,18.4,N/A,,Mostly Cloudy,230,2012-11-28 15:15:00
10:35 AM,28.4,19.4,69,30.18,10.0,SW,11.5,17.3,N/A,,Mostly Cloudy,230,2012-11-28 15:35:00
10:55 AM,30.2,21.2,69,30.18,10.0,SW,11.5,18.4,N/A,,Overcast,230,2012-11-28 15:55:00
11:15 AM,30.2,21.2,69,30.17,10.0,SW,12.7,18.4,N/A,,Overcast,230,2012-11-28 16:15:00
11:35 AM,30.2,21.2,69,30.18,10.0,WSW,18.4,21.9,N/A,,Overcast,240,2012-11-28 16:35:00
11:55 AM,30.2,21.2,69,30.17,6.0,WSW,19.6,23.0,N/A,,Overcast,250,2012-11-28 16:55:00
12:15 PM,30.2,23.0,75,30.18,5.0,WSW,15.0,-,N/A,,Overcast,240,2012-11-28 17:15:00
12:35 PM,30.2,23.0,75,30.18,10.0,SW,16.1,20.7,N/A,,Overcast,230,2012-11-28 17:35:00
2:15 PM,28.4,23.0,80,30.17,7.0,WSW,13.8,20.7,N/A,,Overcast,240,2012-11-28 19:15:00
2:35 PM,28.4,23.0,80,30.18,6.0,WSW,13.8,18.4,N/A,,Overcast,240,2012-11-28 19:35:00
2:55 PM,28.4,23.0,80,30.18,5.0,WSW,11.5,-,N/A,,Overcast,240,2012-11-28 19:55:00
3:15 PM,28.4,23.0,80,30.18,5.0,WSW,11.5,-,N/A,,Overcast,240,2012-11-28 20:15:00
3:35 PM,28.4,24.8,86,30.18,8.0,WSW,11.5,-,N/A,,Overcast,240,2012-11-28 20:35:00
3:55 PM,28.4,24.8,86,30.18,4.0,WSW,12.7,-,N/A,,Overcast,240,2012-11-28 20:55:00
4:15 PM,28.4,24.8,86,30.19,7.0,WSW,10.4,-,N/A,,Overcast,250,2012-11-28 21:15:00
4:35 PM,30.2,24.8,80,30.19,7.0,WSW,9.2,-,N/A,,Overcast,240,2012-11-28 21:35:00
4:55 PM,30.2,24.8,80,30.20,10.0,WSW,11.5,18.4,N/A,,Overcast,240,2012-11-28 21:55:00
5:15 PM,30.2,24.8,80,30.21,10.0,WSW,11.5,-,N/A,,Overcast,240,2012-11-28 22:15:00
5:35 PM,30.2,24.8,80,30.21,10.0,WSW,10.4,-,N/A,,Overcast,250,2012-11-28 22:35:00
5:55 PM,28.4,24.8,86,30.22,10.0,WSW,13.8,-,N/A,,Overcast,240,2012-11-28 22:55:00
6:15 PM,30.2,24.8,80,30.22,10.0,WSW,11.5,-,N/A,,Overcast,250,2012-11-28 23:15:00
6:35 PM,30.2,24.8,80,30.23,10.0,WSW,10.4,-,N/A,,Overcast,250,2012-11-28 23:35:00
6:55 PM,30.2,24.8,80,30.23,10.0,WSW,10.4,-,N/A,,Mostly Cloudy,240,2012-11-28 23:55:00
7:15 PM,28.4,24.8,86,30.23,10.0,WSW,11.5,-,N/A,,Overcast,240,2012-11-29 00:15:00
7:35 PM,28.4,24.8,86,30.23,10.0,SW,9.2,-,N/A,,Mostly Cloudy,230,2012-11-29 00:35:00
7:55 PM,28.4,24.8,86,30.23,10.0,WSW,11.5,-,N/A,,Overcast,240,2012-11-29 00:55:00
8:15 PM,30.2,24.8,80,30.23,10.0,WSW,12.7,-,N/A,,Overcast,250,2012-11-29 01:15:00
8:35 PM,30.2,24.8,80,30.24,10.0,WSW,12.7,-,N/A,,Overcast,240,2012-11-29 01:35:00
8:55 PM,30.2,24.8,80,30.23,10.0,WSW,10.4,16.1,N/A,,Overcast,240,2012-11-29 01:55:00
9:15 PM,30.2,24.8,80,30.23,10.0,WSW,11.5,-,N/A,,Overcast,250,2012-11-29 02:15:00
9:35 PM,30.2,24.8,80,30.23,10.0,WSW,10.4,-,N/A,,Overcast,240,2012-11-29 02:35:00
9:55 PM,30.2,23.0,75,30.23,10.0,WSW,12.7,-,N/A,,Overcast,240,2012-11-29 02:55:00
10:15 PM,30.2,23.0,75,30.24,10.0,WSW,10.4,-,N/A,,Overcast,250,2012-11-29 03:15:00
10:35 PM,28.4,21.2,74,30.23,10.0,WSW,9.2,-,N/A,,Overcast,250,2012-11-29 03:35:00
10:55 PM,30.2,23.0,75,30.23,10.0,WSW,10.4,-,N/A,,Overcast,240,2012-11-29 03:55:00
11:15 PM,30.2,21.2,69,30.23,10.0,WSW,9.2,-,N/A,,Overcast,240,2012-11-29 04:15:00
11:35 PM,30.2,21.2,69,30.23,10.0,WSW,9.2,-,N/A,,Overcast,240,2012-11-29 04:35:00
11:55 PM,30.2,21.2,69,30.23,10.0,SW,9.2,-,N/A,,Overcast,230,2012-11-29 04:55:00